| time (UTC) | temp C | wind direction | speed KPH | gust KPH | rain 1hr cm | rain 24hr cm | rain mn cm | humidity % | barometer mb |
| 20260506044146 | 11 | 184 | 0.0 | 0.0 | 0.00 | 0.74 | 0.00 | 82 | 1006.2 |
| 20260506042035 | 11 | 184 | 3.2 | 8.0 | 0.00 | 0.74 | 0.00 | 82 | 1006.2 |
| 20260506041008 | 11 | 200 | 1.6 | 8.0 | 0.00 | 0.74 | 0.00 | 82 | 1006.2 |
| 20260506035937 | 11 | 217 | 0.0 | 3.2 | 0.00 | 0.74 | 0.00 | 82 | 1006.1 |
| 20260506034934 | 11 | 217 | 1.6 | 8.0 | 0.00 | 0.74 | 0.00 | 82 | 1006.2 |
| 20260506032850 | 11 | 173 | 0.0 | 0.0 | 0.00 | 0.74 | 0.00 | 82 | 1006.4 |
| 20260506031816 | 11 | 173 | 0.0 | 0.0 | 0.00 | 0.74 | 0.00 | 82 | 1006.5 |
| 20260506030837 | 11 | 173 | 0.0 | 0.0 | 0.00 | 0.74 | 0.00 | 82 | 1006.5 |
| 20260506024638 | 11 | 167 | 3.2 | 12.9 | 0.00 | 0.74 | 0.00 | 82 | 1006.7 |
| 20260506023621 | 12 | 179 | 6.4 | 14.5 | 0.00 | 0.74 | 0.00 | 82 | 1006.7 |
| 20260506022622 | 12 | 175 | 6.4 | 14.5 | 0.00 | 0.74 | 0.00 | 81 | 1006.7 |
| 20260506021601 | 12 | 180 | 3.2 | 12.9 | 0.00 | 0.74 | 0.00 | 81 | 1006.7 |
| 20260506015445 | 12 | 172 | 1.6 | 8.0 | 0.00 | 0.74 | 0.00 | 81 | 1006.7 |
| 20260506013336 | 12 | 180 | 4.8 | 14.5 | 0.00 | 0.74 | 0.00 | 81 | 1006.8 |
| 20260506012315 | 12 | 200 | 4.8 | 9.7 | 0.00 | 0.74 | 0.00 | 81 | 1006.8 |
| 20260506011247 | 12 | 187 | 0.0 | 8.0 | 0.00 | 0.74 | 0.00 | 80 | 1006.9 |
| 20260506010308 | 12 | 166 | 0.0 | 0.0 | 0.00 | 0.74 | 0.00 | 80 | 1007.0 |
| 20260506005250 | 12 | 166 | 0.0 | 0.0 | 0.00 | 0.74 | 0.00 | 80 | 1007.0 |
| 20260506003131 | 12 | 166 | 1.6 | 6.4 | 0.00 | 0.74 | 0.00 | 80 | 1007.2 |
| 20260506002120 | 12 | 165 | 0.0 | 4.8 | 0.00 | 0.74 | 0.00 | 79 | 1007.4 |
| 20260506001127 | 12 | 179 | 0.0 | 0.0 | 0.00 | 0.74 | 0.00 | 79 | 1007.3 |
| 20260506000147 | 12 | 179 | 1.6 | 6.4 | 0.00 | 0.74 | 0.00 | 79 | 1007.4 |
| 20260505235206 | 12 | 180 | 3.2 | 9.7 | 0.00 | 0.74 | 0.00 | 79 | 1007.4 |
| 20260505233125 | 12 | 174 | 1.6 | 6.4 | 0.00 | 0.74 | 0.00 | 78 | 1007.5 |
| 20260505232130 | 12 | 188 | 1.6 | 4.8 | 0.00 | 0.74 | 0.00 | 78 | 1007.5 |
| 20260505231118 | 13 | 188 | 1.6 | 6.4 | 0.00 | 0.74 | 0.00 | 78 | 1007.7 |
| 20260505222801 | 13 | 202 | 4.8 | 9.7 | 0.00 | 0.74 | 0.00 | 77 | 1007.6 |
| 20260505220602 | 13 | 164 | 4.8 | 9.7 | 0.00 | 0.74 | 0.00 | 76 | 1007.5 |
| 20260505215620 | 13 | 167 | 4.8 | 8.0 | 0.00 | 0.74 | 0.74 | 76 | 1007.5 |
| 20260505214555 | 13 | 161 | 4.8 | 8.0 | 0.00 | 0.74 | 0.74 | 76 | 1007.6 |
| 20260505213611 | 13 | 184 | 3.2 | 8.0 | 0.00 | 0.74 | 0.74 | 75 | 1007.5 |
| 20260505212545 | 13 | 176 | 1.6 | 8.0 | 0.00 | 0.74 | 0.74 | 75 | 1007.4 |
| 20260505211512 | 14 | 175 | 0.0 | 4.8 | 0.00 | 0.74 | 0.74 | 75 | 1007.6 |
| 20260505203114 | 13 | 158 | 0.0 | 6.4 | 0.00 | 0.74 | 0.74 | 72 | 1007.7 |
| 20260505202117 | 14 | 157 | 0.0 | 3.2 | 0.08 | 0.74 | 0.74 | 72 | 1007.7 |
| 20260505201104 | 14 | 157 | 0.0 | 6.4 | 0.08 | 0.74 | 0.74 | 72 | 1007.7 |
| 20260505200100 | 14 | 146 | 0.0 | 4.8 | 0.10 | 0.71 | 0.71 | 71 | 1007.7 |
| 20260505195035 | 14 | 144 | 0.0 | 3.2 | 0.18 | 0.69 | 0.69 | 71 | 1007.6 |
| 20260505194036 | 14 | 143 | 0.0 | 0.0 | 0.13 | 0.66 | 0.66 | 70 | 1007.6 |
| 20260505193002 | 15 | 143 | 1.6 | 14.5 | 0.43 | 0.64 | 0.64 | 70 | 1007.4 |
| 20260505191936 | 15 | 161 | 1.6 | 14.5 | 0.69 | 0.53 | 0.56 | 70 | 1007.5 |
| 20260505190913 | 16 | 162 | 0.0 | 6.4 | 0.25 | 0.25 | 0.25 | 69 | 1007.5 |
| 20260505185904 | 16 | 174 | 0.0 | 1.6 | 1.42 | 0.10 | 0.15 | 68 | 1007.4 |
| 20260505183726 | 16 | 219 | 0.0 | 0.0 | 0.00 | 0.08 | 0.08 | 67 | 1007.1 |
| 20260505182705 | 16 | 219 | 0.0 | 0.0 | 0.00 | 0.08 | 0.08 | 66 | 1007.0 |
| 20260505180449 | 16 | 219 | 0.0 | 0.0 | 0.00 | 0.08 | 0.08 | 65 | 1006.9 |
| 20260505175451 | 16 | 219 | 0.0 | 0.0 | 0.00 | 0.08 | 0.08 | 65 | 1006.9 |
| 20260505174504 | 16 | 219 | 0.0 | 0.0 | 0.00 | 0.08 | 0.08 | 65 | 1007.0 |
| 20260505172408 | 16 | 219 | 0.0 | 0.0 | 0.00 | 0.08 | 0.08 | 65 | 1007.0 |
| 20260505171357 | 16 | 219 | 0.0 | 0.0 | 0.00 | 0.08 | 0.08 | 65 | 1007.0 |
| 20260505170417 | 16 | 219 | 0.0 | 0.0 | 0.00 | 0.08 | 0.08 | 66 | 1007.0 |
| 20260505164254 | 17 | 219 | 0.0 | 0.0 | 0.00 | 0.08 | 0.08 | 67 | 1007.1 |
| 20260505163234 | 17 | 219 | 0.0 | 0.0 | 0.00 | 0.08 | 0.08 | 68 | 1007.2 |
| 20260505162214 | 17 | 219 | 0.0 | 0.0 | 0.00 | 0.08 | 0.08 | 68 | 1007.2 |
| 20260505161208 | 16 | 219 | 0.0 | 0.0 | 0.00 | 0.08 | 0.08 | 68 | 1007.2 |
| 20260505152939 | 16 | 219 | 0.0 | 0.0 | 0.00 | 0.08 | 0.08 | 69 | 1007.5 |
| 20260505151937 | 16 | 219 | 0.0 | 0.0 | 0.00 | 0.08 | 0.08 | 68 | 1007.5 |
| 20260505150917 | 16 | 219 | 0.0 | 0.0 | 0.00 | 0.08 | 0.08 | 68 | 1007.4 |
| 20260505124746 | 18 | 184 | 1.6 | 11.3 | 0.00 | 0.00 | 0.00 | 58 | 1008.3 |
| 20260505123807 | 18 | 235 | 3.2 | 11.3 | 0.00 | 0.00 | 0.00 | 56 | 1008.2 |
| 20260505122812 | 18 | 246 | 1.6 | 11.3 | 0.00 | 0.00 | 0.00 | 54 | 1008.1 |
| 20260505121829 | 19 | 186 | 3.2 | 11.3 | 0.00 | 0.00 | 0.00 | 53 | 1008.1 |
| 20260505120804 | 19 | 269 | 1.6 | 14.5 | 0.00 | 0.00 | 0.00 | 53 | 1008.1 |
| 20260505115803 | 19 | 215 | 4.8 | 14.5 | 0.00 | 0.00 | 0.00 | 53 | 1008.1 |
| 20260505113601 | 18 | 221 | 3.2 | 11.3 | 0.00 | 0.00 | 0.00 | 55 | 1008.2 |
| 20260505112558 | 18 | 201 | 1.6 | 6.4 | 0.00 | 0.00 | 0.00 | 55 | 1008.3 |
| 20260505102150 | 18 | 242 | 0.0 | 0.0 | 0.00 | 0.00 | 0.00 | 56 | 1008.5 |
| 20260505101158 | 18 | 242 | 0.0 | 4.8 | 0.00 | 0.00 | 0.00 | 56 | 1008.6 |
| 20260505100215 | 18 | 273 | 0.0 | 3.2 | 0.00 | 0.00 | 0.00 | 56 | 1008.7 |
| 20260505095143 | 18 | 172 | 0.0 | 0.0 | 0.00 | 0.00 | 0.00 | 57 | 1008.7 |
| 20260505094205 | 18 | 172 | 0.0 | 0.0 | 0.00 | 0.00 | 0.00 | 57 | 1008.8 |
| 20260505092020 | 17 | 227 | 0.0 | 0.0 | 0.00 | 0.00 | 0.00 | 60 | 1009.1 |
| 20260505090958 | 17 | 227 | 0.0 | 0.0 | 0.00 | 0.00 | 0.00 | 60 | 1009.1 |
| 20260505085938 | 16 | 227 | 0.0 | 0.0 | 0.00 | 0.00 | 0.00 | 61 | 1009.2 |
| 20260505084943 | 16 | 227 | 0.0 | 0.0 | 0.00 | 0.00 | 0.00 | 61 | 1009.3 |
| 20260505083933 | 16 | 227 | 0.0 | 0.0 | 0.00 | 0.00 | 0.00 | 61 | 1009.3 |
| 20260505081820 | 16 | 227 | 0.0 | 0.0 | 0.00 | 0.00 | 0.00 | 61 | 1009.5 |
| 20260505080753 | 16 | 227 | 0.0 | 0.0 | 0.00 | 0.00 | 0.00 | 61 | 1009.4 |
| 20260505075728 | 16 | 227 | 0.0 | 0.0 | 0.00 | 0.00 | 0.00 | 61 | 1009.5 |
| 20260505074737 | 16 | 227 | 0.0 | 0.0 | 0.00 | 0.00 | 0.00 | 61 | 1009.5 |
| 20260505073751 | 16 | 227 | 0.0 | 0.0 | 0.00 | 0.00 | 0.00 | 62 | 1009.5 |
| 20260505072719 | 16 | 227 | 0.0 | 0.0 | 0.00 | 0.00 | 0.00 | 62 | 1009.5 |
| 20260505071646 | 15 | 227 | 0.0 | 0.0 | 0.00 | 0.00 | 0.00 | 64 | 1009.6 |
| 20260505070646 | 15 | 227 | 0.0 | 0.0 | 0.00 | 0.00 | 0.00 | 65 | 1009.6 |
| 20260505065644 | 15 | 227 | 0.0 | 0.0 | 0.00 | 0.00 | 0.00 | 65 | 1009.7 |
| 20260505064636 | 15 | 227 | 0.0 | 0.0 | 0.00 | 0.00 | 0.00 | 66 | 1009.7 |
| 20260505062540 | 14 | 227 | 0.0 | 0.0 | 0.00 | 0.00 | 0.00 | 67 | 1009.8 |
| 20260505061545 | 13 | 227 | 0.0 | 0.0 | 0.00 | 0.00 | 0.00 | 67 | 1009.8 |
| 20260505055415 | 13 | 227 | 0.0 | 0.0 | 0.00 | 0.00 | 0.00 | 67 | 1009.9 |
| 20260505053256 | 13 | 227 | 0.0 | 0.0 | 0.00 | 0.00 | 0.00 | 67 | 1009.8 |
| 20260505051208 | 13 | 227 | 0.0 | 0.0 | 0.00 | 0.00 | 0.00 | 66 | 1009.7 |
| 20260505050140 | 13 | 227 | 0.0 | 0.0 | 0.00 | 0.00 | 0.00 | 66 | 1009.6 |